Flag for Italy Weather past 2 weeks in Modena, Italy

Now
81 °F

Scattered clouds.


Feels Like: 82 °F
Forecast: 61 / 80 °F
Wind: 7 mph from South

Location: Bologna / Borgo Panigale

Current Time: Aug 27, 2014 at 9:13:25 PM

Latest Report: Aug 27, 2014 at 8:20 PM


Visibility: N/A

Pressure: 29.83 "Hg

Humidity: 54%

Dew point: 63 °F

Location of ModenaLocation

Historic Weather in Modena — Graph

°F

Modena temperature yesterday

Maximum temperature yesterday: 81 °F (at 3:20 PM)
Minimum temperature yesterday: 59 °F (at 6:20 AM)
Average temperature yesterday: 72 °F

Past Weeks' High & Low Weather Summary

 TemperatureHumidityPressure
High88 °F (Aug 12, 7:20 PM)100% (Aug 16, 9:20 AM)30.09 "Hg (Aug 16, 9:20 AM)
Low55 °F (Aug 17, 5:50 AM)32% (Aug 17, 4:20 PM)29.68 "Hg (Aug 13, 2:20 PM)
Average71 °F69%29.90 "Hg
* Reported Aug 12 7:20 PM — Aug 27 7:50 PM, Modena, Weather by CustomWeather, © 2014

Note: Actual official high and low records may vary slightly from our data, if they occured in-between our weather recording intervals... More about our weather records

Advertising

Modena weather history for previous 24 hours

 ConditionsComfort  
Time TempWeatherWind HumidityBarometerVisibility
7:50 PM
Aug 27
81 °FScattered clouds.6 mph58%29.83 "HgN/A
7:20 PM82 °FPassing clouds.5 mph58%29.80 "HgN/A
6:50 PM84 °FPassing clouds.3 mph55%29.80 "HgN/A
6:20 PM84 °FPassing clouds.3 mph55%29.80 "HgN/A
5:50 PM84 °FPassing clouds.5 mph55%29.80 "HgN/A
4:20 PM84 °FPassing clouds.5 mph55%29.80 "HgN/A
3:50 PM84 °FPassing clouds.5 mph55%29.80 "HgN/A
3:20 PM84 °FPassing clouds.3 mph58%29.80 "HgN/A
2:50 PM82 °FPassing clouds.6 mph58%29.80 "HgN/A
2:20 PM82 °FPassing clouds.3 mph58%29.80 "HgN/A
1:50 PM82 °FPassing clouds.5 mph62%29.80 "HgN/A
1:20 PM82 °FPassing clouds.3 mph55%29.83 "HgN/A
12:50 PM81 °FPassing clouds.7 mph62%29.83 "HgN/A
12:20 PM79 °FPassing clouds.3 mph61%29.83 "HgN/A
11:50 AM77 °FPassing clouds.5 mph69%29.83 "HgN/A
11:20 AM75 °FSunny.5 mph74%29.83 "Hg10 mi
10:50 AM73 °FClear.5 mph74%29.83 "Hg5 mi
10:20 AM72 °FPassing clouds.3 mph78%29.83 "Hg4 mi
9:50 AM70 °FFog.3 mph83%29.83 "Hg3 mi
9:20 AM68 °FFog.5 mph88%29.83 "Hg2 mi
8:50 AM68 °FFog.6 mph88%29.83 "Hg2 mi
8:20 AM66 °FFog.5 mph94%29.80 "Hg1 mi
7:50 AM66 °FFog.6 mph94%29.80 "Hg1 mi
7:20 AM64 °FFog.3 mph94%29.80 "Hg1 mi
6:50 AM64 °FFog.3 mph94%29.80 "Hg1 mi
6:20 AM64 °FFog.5 mph94%29.77 "Hg1 mi
5:50 AM64 °FFog.3 mph94%29.77 "Hg1 mi
5:20 AM64 °FFog.6 mph100%29.77 "Hg1 mi
4:50 AM64 °FFog.8 mph94%29.77 "Hg1 mi
4:20 AM64 °FFog.6 mph94%29.80 "Hg2 mi
3:50 AM64 °FFog.6 mph94%29.77 "Hg2 mi
3:20 AM64 °FFog.5 mph94%29.77 "Hg2 mi
2:50 AM64 °FFog.6 mph94%29.80 "Hg3 mi
2:20 AM64 °FPassing clouds.8 mph94%29.80 "HgN/A
1:50 AM64 °FClear.5 mph94%29.80 "Hg10 mi
1:20 AM66 °FClear.2 mph88%29.80 "Hg10 mi
12:50 AM66 °FClear.5 mph83%29.80 "Hg10 mi
12:20 AM66 °FClear.No wind83%29.80 "Hg10 mi
11:50 PM
Aug 26
64 °FPassing clouds.3 mph83%29.80 "HgN/A
11:20 PM68 °FClear.2 mph78%29.80 "Hg10 mi
10:50 PM70 °FClear.5 mph73%29.80 "Hg10 mi
10:20 PM72 °FClear.6 mph65%29.80 "Hg10 mi
9:50 PM73 °FClear.2 mph53%29.80 "Hg10 mi
9:20 PM75 °FClear.6 mph50%29.80 "Hg10 mi
Weather by CustomWeather, © 2014

See weather overviewHow to use our weather pages